Ecaussinnes-d'Enghien, Belgium
Current Conditions -  °F | °C
As of 9:50 AM on Sunday 26 Oct 2014 (Local Time) from EBCI Reporting Station
Broken Clouds Broken Clouds  
Wind Chill: 52°   Ceiling: 4000
Heat Index: 52°   Visibility: 6mi
Dew Point: 50°   Wind: 7mph
Humidity: 94%   Direction: 180°S
Pressure: 30.27"   Gusts: NA
Location:  50.57°N, 4.17°E
Report Text: EBCI 260750Z 18006KT 9000 BKN040 11/10 Q1025 NOSIG
Loading
Personal Weather Stations






























Interactive Weather Map
Tropical Storm Tracking
New forecast layout! Learn more

10-Day Weather Forecast

Advertisements
Track Severe Weather on mobile